Regional Weather Roundup
Issued by NWS

Home | Current Version | Previous Version | Text Only | Print | Product List | Glossary On
Versions: 1 2 3 4 5 6 7 8 9 10 11 12 13 14 15 16 17 18 19 20 21 22 23 24 25 26 27 28 29 30 31 32 33 34 35 36 37 38 39 40 41 42 43 44 45 46 47 48 49 50
026
ASUS43 KDTX 110210
RWRMI
MICHIGAN HOURLY REGIONAL WEATHER ROUNDUP
NATIONAL WEATHER SERVICE DETROIT/PONTIAC MI
900 PM EST SAT DEC 10 2016

NOTE: "FAIR" INDICATES FEW OR NO CLOUDS BELOW 12,000 FEET WITH NO
SIGNIFICANT WEATHER AND/OR OBSTRUCTION TO VISIBILITY.

MIZ047>049-052>055-059>063-066>070-074>076-081>083-110300-
SOUTHEAST LOWER MICHIGAN

CITY           SKY/WX    TMP DP  RH WIND       PRES   REMARKS
ADRIAN         CLOUDY    23  17  78 SW6       30.41F WCI  16
ALMA           CLOUDY    20  17  85 CALM      30.37F
ANN ARBOR      CLOUDY    22  16  78 SW5       30.39F WCI  16
BAD AXE        CLOUDY    22  13  68 SW5       30.36S WCI  16
CARO           CLEAR     17  13  86 S3        30.37S
DETROIT CITY   CLOUDY    25  17  72 SW9       30.40F WCI  15
DETROIT        CLOUDY    26  16  65 SW10      30.41F WCI  16
FLINT          CLOUDY    21  18  88 SW5       30.38F WCI  15
GROSSE ILE     CLOUDY    26  16  67 SW6       30.40F WCI  19
HILLSDALE      CLOUDY    21  16  79 S5        30.36F WCI  15
HOWELL         FLURRIES  22  19  85 SW5       30.37S WCI  16

CITY           SKY/WX    TMP DP  RH WIND       PRES   REMARKS
JACKSON        CLOUDY    21  14  74 S6        30.37F WCI  13
LAMBERTVILLE   CLOUDY    26  17  66 SW5       30.42F WCI  21
LANSING        CLOUDY    23  17  78 SW8       30.37F WCI  14
LAPEER         NOT AVBL
MASON          CLOUDY    22  18  84 SW3       30.37F
MONROE         CLOUDY    26  18  73 SW7       30.41F WCI  18
MT. CLEMENS    MOCLDY    25  17  71 SW7       30.37S WCI  17
PONTIAC        CLOUDY    23  18  81 SW9       30.36F WCI  13
PORT HOPE        N/A     24  11  57 SW7       30.34S WCI  16
PORT HURON     CLOUDY    23  19  86 CALM      30.39F
TRI CITIES     PTCLDY    19  12  74 SW5       30.38F WCI  12
MIDLAND        FAIR      16  12  82 CALM      30.37F
TROY           CLOUDY    26  16  66 SW7       30.41F WCI  18
SAGINAW HB     PTCLDY    21  12  68 SW3       30.38S
$$
MIZ043>046-050>051-056>058-064>065-071>073-077>080-110300-
SOUTHWEST LOWER MICHIGAN

CITY           SKY/WX    TMP DP  RH WIND       PRES   REMARKS
BATTLE CREEK   CLOUDY    22  16  78 S8        30.36F WCI  12
BENTON HARBOR  CLOUDY    24  17  74 S8        30.38F HAZE    WCI  15
BIG RAPIDS     PTCLDY    16  12  84 CALM      30.33F
COLDWATER      CLOUDY    23  15  73 S3        30.37F
FREMONT        CLOUDY    19  13  79 SE3       30.34F
HOLLAND        LGT SNOW  23  19  85 S9        30.35F FOG     WCI  13
GRAND RAPIDS   LGT SNOW  23  19  85 S7        30.36F FOG     WCI  15
IONIA          FLURRIES  21  19  91 CALM      30.35F
KALAMAZOO      CLOUDY    23  14  68 SW9       30.37F WCI  13
LUDINGTON      CLOUDY    24  15  68 CALM      30.33F
MARSHALL       CLOUDY    22  15  76 CALM      30.36F
MOUNT PLEASANT PTCLDY    19  11  71 SW3       30.35F
MUSKEGON       LGT SNOW  23  17  78 E8        30.35F WCI  14
SOUTH HAVEN    CLOUDY    24  16  73 S9        30.36F WCI  14
$$
MIZ016>042-110300-
NORTHERN LOWER MICHIGAN

CITY           SKY/WX    TMP DP  RH WIND       PRES   REMARKS
ALPENA         CLEAR     15   6  67 SW8       30.33F WCI   4
BEAVER ISLAND  CLOUDY    23  14  68 NW5       30.29S WCI  17
BELLAIRE       CLOUDY    19  14  79 S8        30.34S WCI   9
CADILLAC       FLURRIES  16  10  78 CALM      30.28F
CHARLEVOIX     FLURRIES  22  15  76 S8        30.33S WCI  12
FRANKFORT      CLOUDY    23  15  71 W6        30.33F WCI  16
GAYLORD        CLOUDY    13   6  74 SW9       30.27S WCI   1
GRAYLING       CLOUDY    17  12  80 SW3       30.31F
HARBOR SPRINGS LGT SNOW  19  17  90 SE5       30.29F WCI  12
HOUGHTON LAKE  CLOUDY    17  13  84 CALM      30.32F
MANISTEE       CLOUDY    20  13  74 SE3       30.33F
OSCODA         CLOUDY    17  10  72 MISG      30.35S
PELLSTON       CLOUDY    20  15  81 S6        30.30S WCI  12
ROGERS CITY    CLEAR     17  10  73 SW8       30.32S WCI   7
TRAVERSE CITY  FLURRIES  20  13  74 VRB3      30.34S
$$
MIZ007>008-015-110300-
EASTERN UPPER MICHIGAN

CITY           SKY/WX    TMP DP  RH WIND       PRES   REMARKS
KINROSS        PTCLDY    10   9  92 W6        30.28S WCI   1
MACKINAC ISLAN CLEAR     20  17  86 NW10G17   30.27F WCI   9
NEWBERRY       CLEAR     13   8  81 W8        30.27S WCI   1
S. S. MARIE    CLEAR     14  10  84 S5        30.27S WCI   6
MUNISING         N/A      6   2  83 S6        30.30F WCI  -4
$$
MIZ004>006-011>014-085-110300-
CENTRAL UPPER MICHIGAN

CITY           SKY/WX    TMP DP  RH WIND       PRES   REMARKS
MANISTIQUE     CLOUDY    10   8  92 NW5       30.30F WCI   1
ESCANABA       CLEAR     11   6  81 CALM      30.33F
MENOMINEE      CLOUDY    14   5  67 W3        30.34F
SAWYER-GWINN   CLEAR      3   0  85 W3        30.26F
$$
MIZ001>003-009>011-084-110300-
WESTERN UPPER MICHIGAN

CITY           SKY/WX    TMP DP  RH WIND       PRES   REMARKS
IRON MOUNTAIN  CLOUDY     5  -1  76 CALM      30.26F
HOUGHTON       MOCLDY    10   5  80 W7        30.24F WCI  -1
COPPER HARBOR    N/A     16  10  77 VRB3      30.28F
IRONWOOD       PTCLDY    -6 -10  83 E3        30.27F
$$

ABBREVIATIONS USED IN REMARKS
   TC - TEMPERATURE IN CELSIUS
  WCI - WIND CHILL INDEX
   HX - HEAT INDEX
  VSB - VISIBILITY





USA.gov is the U.S. government's official web portal to all federal, state and local government web resources and services.